Starlink 35672

operational
NORAD ID: 66394 Int'l Des: 2025-257 Owner: SPXS Country: US Constellation: starlink
LEOCIRCULAR

About Starlink 35672

Description loading...

Live Position

Loading 3D Globe...

Upcoming Passes

Altitude History

Altitude vs Time

uPlot chart will show altitude changes over time

Two-Line Element Set

1 66394U 25257Q 25338.75002315 -.02010902 00000-0 -45845-1 0 9996
2 66394 53.1597 302.0160 0001384 108.9213 164.9843 15.45775147 5211
Epoch: Dec 4, 2025 • Age: 11 hours

Current Status

Altitude 437.7 km
Velocity 7.65 km/s
Sub-Earth Point -7.92°S, 141.6°E
Launch Date Nov 9, 2025
Age 25 days
Type internet

Technical Details

Classification Payload
Mass 575.00 kg
Dry Mass 530.00 kg
Total Mass 575.00 kg
Length 0.30 m
Diameter 4.10 m
Span 29.00 m
Shape Box + pan
Manufacturer SPXS
Bus Type Starlink V2MO
Phase Status In Orbit
Owner/State SPXS/US

Large Constellations

Loading constellations...